Regional Weather Roundup
Issued by NWS

Home | Current Version | Previous Version | Text Only | Print | Product List | Glossary Off
Versions: 1 2 3 4 5 6 7 8 9 10 11 12 13 14 15 16 17 18 19 20 21 22 23 24 25 26 27 28

000
ASUS45 KPSR 230810
RWRAZ

ARIZONA HOURLY REGIONAL WEATHER ROUNDUP
NATIONAL WEATHER SERVICE PHOENIX AZ
100 AM MST TUE AUG 23 2016

NOTE: FAIR INDICATES FEW OR NO CLOUDS BELOW 12,000 FEET WITH NO
SIGNIFICANT WEATHER AND/OR OBSTRUCTIONS TO VISIBILITY.

AZZ001>003-036-230900-
NORTHWEST ARIZONA

CITY           SKY/WX    TMP DP  RH WIND       PRES   REMARKS
BULLHEAD CITY  CLOUDY    81  59  47 N15       29.95F
KINGMAN        RAIN      60  59  96 N10       30.16F
$$

AZZ004>008-015-016-018-230900-
NORTH CENTRAL ARIZONA

CITY           SKY/WX    TMP DP  RH WIND       PRES   REMARKS
GRAND CANYON   LGT RAIN  57  49  74 S3        30.26R
PRESCOTT       PTCLDY    59  55  87 S7        30.16S
FLAGSTAFF      PTCLDY    48  46  93 CALM      30.27S
PAYSON         PTCLDY    61  50  67 CALM      30.18S
PAGE           MOCLDY    71  47  42 CALM      30.06S
$$

AZZ009>014-017-230900-
NORTHEAST ARIZONA

CITY           SKY/WX    TMP DP  RH WIND       PRES   REMARKS
WINSLOW        MOCLDY    67  52  58 S5        30.14S
SAINT JOHNS    CLEAR     58  52  80 S7        30.19F
WINDOW ROCK    MOCLDY    54  48  80 CALM      30.25F
SHOW LOW       CLEAR     54  41  62 CALM      30.26S
$$

AZZ023-230900-
GREATER PHOENIX AREA

CITY           SKY/WX    TMP DP  RH WIND       PRES   REMARKS
PHOENIX        MOCLDY    88  59  37 NW21      29.88R
BUCKEYE        CLOUDY    79  63  57 N17       29.89F
LUKE AFB       CLOUDY    77  66  69 N7        29.89F
DEER VALLEY    CLOUDY    78  60  53 NW17      29.92R
SCOTTSDALE     MOCLDY    84  57  39 NW10G17   29.93R
MESA-GATEWAY   MOCLDY    84  55  37 SW6       29.90S
$$

AZZ027-028-230900-
SOUTHWEST MARICOPA COUNTY AND PINAL COUNTY

CITY           SKY/WX    TMP DP  RH WIND       PRES   REMARKS
CASA GRANDE    PTCLDY    84  59  42 CALM      29.93S
GILA BEND      FAIR      82  64  54 E5        29.87R
$$

AZZ503-504-507>509-230900-
SOUTHEAST ARIZONA

CITY           SKY/WX    TMP DP  RH WIND       PRES   REMARKS
TUCSON         CLEAR     78  57  48 S9        30.03R
DAVIS-MONTHAN  PTCLDY    76  57  50 S5        30.01S
NOGALES        CLEAR     67  56  67 E5        30.12S
SIERRA VISTA   PTCLDY    70  50  49 SW10      30.16F
DOUGLAS        PTCLDY    65  53  65 E5        30.12R
SAFFORD        CLEAR     73  46  38 NW5       30.01S
$$

AZZ020-021-025-026-031-230900-
SOUTHWEST ARIZONA

CITY           SKY/WX    TMP DP  RH WIND       PRES   REMARKS
YUMA           PTCLDY    87  73  62 S3        29.84R
$$

CAZ031-033-041-043-047-048-061-230900-
SOUTHERN CALIFORNIA

CITY           SKY/WX    TMP DP  RH WIND       PRES   REMARKS
DOWNTOWN L.A.  CLEAR     66  59  78 CALM      29.95S
L.A. AIRPORT   PTCLDY    66  61  84 CALM      29.95F
SAN DIEGO      PTCLDY    66  62  87 N3        29.98R
BURBANK        CLEAR     67  57  70 E5        29.96R
ONTARIO        PTCLDY    68  56  65 SW5       29.97S
RIVERSIDE      PTCLDY    70  58  65 CALM      29.97R
PALM SPRINGS   CLEAR     86  49  27 S3        29.86R
EL CENTRO NAS  CLEAR     82  41  23 NW6       29.83R
IMPERIAL       CLEAR     84  44  24 W6        29.80S
BLYTHE         CLEAR     88  60  38 N10       29.85S
NEEDLES        LGT RAIN  77  68  73 VRB6      29.94S
$$

NVZ020-UTZ003-230900-
SOUTHERN NEVADA-UTAH

CITY           SKY/WX    TMP DP  RH WIND       PRES   REMARKS
LAS VEGAS      CLOUDY    73  58  59 NE3       30.01F
SALT LAKE CITY MOCLDY    76  38  25 SE10      29.99R
$$

NMZ009-TXZ055-230900-
NEW MEXICO-WEST TEXAS

CITY           SKY/WX    TMP DP  RH WIND       PRES   REMARKS
ALBUQUERQUE    CLOUDY    64  59  83 NE5       30.18F
EL PASO        MOCLDY    71  60  68 S6        30.11S
$$


........................KEY........................
SKY/WX - SKY CONDITION/WEATHER
TMP    - TEMPERATURE IN FAHRENHEIT
DP     - DEW POINT IN FAHRENHEIT
RH     - RELATIVE HUMIDITY IN PERCENT
WIND   - DIRECTION AND SPEED IN MILES PER HOUR (MPH)
VRB    - VARIABLE WIND DIRECTION
PRES   - MEAN SEA LEVEL PRESSURE IN INCHES OF MERCURY
         F - FALLING PRESSURE   R - RISING PRESSURE
         S - STEADY PRESSURE
VSB    - VISIBILITY IN MILES
HX     - HEAT INDEX IN FAHRENHEIT
WCI    - WIND CHILL INDEX IN FAHRENHEIT
TC     - TEMPERATURE IN CELSIUS WHICH IS ALSO KNOWN AS
         TEMPERATURE IN CENTIGRADE
AFB    - AIR FORCE BASE
         LUKE AFB IS LUKE AIR FORCE BASE
         DAVIS-MONTHAN IS DAVIS-MONTHAN AIR FORCE BASE
NAS    - NAVAL AIR STATION
         EL CENTRO NAS IS EL CENTRO NAVAL AIR STATION
N/A    - NOT AVAILABLE





USA.gov is the U.S. government's official web portal to all federal, state and local government web resources and services.